When you browse on this site, cookies collect data to enhance your experience and personalize the content and advertising you see.
Visit our Privacy Policy to learn more. By continuing to use the site, you agree to this use of cookies and data.
  • Em Portugal
  • Lista de países
  • Para 7 dias
  • Temperatura da água
  • Mapas de satélite
  • Mapa do tempo
  • Widgets de tempo
  • user-avatar
    Iniciar Sessão

    Previsão horária em Tarija

    Hoje, 19 Janeiro, Sábado

    Tempo Temperatura Precipitação Vento Pressão Humidade
    00:00 +14°C° 0.1 mm 1 m/s 599 mmHg 92%
    01:00 +14°C° 0.1 mm 1 m/s 599 mmHg 91%
    02:00 +14°C° 0 mm 1 m/s 599 mmHg 92%
    03:00 +14°C° 0 mm 1 m/s 599 mmHg 92%
    04:00 +14°C° 0 mm 1 m/s 599 mmHg 92%
    05:00 +14°C° 0 mm 1 m/s 599 mmHg 92%
    06:00 +14°C° 0 mm 1 m/s 600 mmHg 88%
    07:00 +15°C° 0 mm 1 m/s 600 mmHg 84%
    08:00 +15°C° 0 mm 0 m/s 601 mmHg 76%
    09:00 +19°C° 0 mm 1 m/s 601 mmHg 71%
    10:00 +19°C° 0 mm 2 m/s 601 mmHg 66%
    11:00 +21°C° 0 mm 2 m/s 602 mmHg 60%
    12:00 +21°C° 0 mm 3 m/s 601 mmHg 61%
    13:00 +21°C° 0 mm 3 m/s 601 mmHg 62%
    14:00 +22°C° 0 mm 3 m/s 600 mmHg 63%
    15:00 +21°C° 0 mm 3 m/s 599 mmHg 66%
    16:00 +20°C° 0 mm 3 m/s 599 mmHg 69%
    17:00 +20°C° 0 mm 3 m/s 598 mmHg 73%
    18:00 +19°C° 0 mm 3 m/s 598 mmHg 77%
    19:00 +18°C° 0 mm 2 m/s 598 mmHg 82%
    20:00 +17°C° 0 mm 2 m/s 598 mmHg 87%
    21:00 +16°C° 0 mm 1 m/s 599 mmHg 89%
    22:00 +16°C° 0 mm 1 m/s 599 mmHg 91%
    23:00 +15°C° 0 mm 1 m/s 600 mmHg 93%

    Amanhã, 20 Janeiro, Domingo

    Tempo Temperatura Precipitação Vento Pressão Humidade
    00:00 +15°C° 0 mm 1 m/s 599 mmHg 93%
    01:00 +14°C° 0 mm 0 m/s 599 mmHg 92%
    02:00 +13°C° 0 mm 0 m/s 598 mmHg 92%
    03:00 +14°C° 0 mm 1 m/s 598 mmHg 91%
    04:00 +14°C° 0 mm 1 m/s 598 mmHg 90%
    05:00 +13°C° 0 mm 1 m/s 597 mmHg 88%
    06:00 +15°C° 0 mm 1 m/s 598 mmHg 79%
    07:00 +18°C° 0 mm 1 m/s 599 mmHg 69%
    08:00 +20°C° 0 mm 1 m/s 600 mmHg 60%
    09:00 +22°C° 0 mm 1 m/s 601 mmHg 53%
    10:00 +24°C° 0 mm 2 m/s 601 mmHg 46%
    11:00 +26°C° 0 mm 2 m/s 602 mmHg 39%
    12:00 +26°C° 0 mm 3 m/s 601 mmHg 39%
    13:00 +27°C° 0 mm 3 m/s 601 mmHg 39%
    14:00 +28°C° 0 mm 4 m/s 600 mmHg 39%
    15:00 +27°C° 0 mm 4 m/s 600 mmHg 43%
    16:00 +26°C° 0 mm 4 m/s 599 mmHg 46%
    17:00 +26°C° 0 mm 4 m/s 598 mmHg 50%
    18:00 +24°C° 0 mm 3 m/s 598 mmHg 57%
    19:00 +21°C° 0 mm 2 m/s 598 mmHg 65%
    20:00 +20°C° 0 mm 2 m/s 598 mmHg 72%
    21:00 +20°C° 0 mm 1 m/s 598 mmHg 76%
    22:00 +19°C° 0 mm 1 m/s 598 mmHg 80%
    23:00 +19°C° 0 mm 1 m/s 598 mmHg 83%

    Depois de amanhã, 21 Janeiro, Segunda-feira

    Tempo Temperatura Precipitação Vento Pressão Humidade
    00:00 +18°C° 0 mm 1 m/s 598 mmHg 84%
    01:00 +18°C° 0 mm 1 m/s 597 mmHg 84%
    02:00 +17°C° 0 mm 2 m/s 597 mmHg 85%
    03:00 +16°C° 0 mm 2 m/s 597 mmHg 85%
    04:00 +16°C° 0 mm 1 m/s 596 mmHg 84%
    05:00 +16°C° 0 mm 1 m/s 596 mmHg 84%
    06:00 +19°C° 0 mm 1 m/s 597 mmHg 74%
    07:00 +21°C° 0 mm 1 m/s 599 mmHg 64%
    08:00 +23°C° 0 mm 1 m/s 600 mmHg 54%
    09:00 +25°C° 0 mm 1 m/s 600 mmHg 47%
    10:00 +26°C° 0 mm 2 m/s 601 mmHg 39%
    11:00 +28°C° 0 mm 2 m/s 601 mmHg 32%
    12:00 +28°C° 0 mm 3 m/s 601 mmHg 32%
    13:00 +29°C° 0 mm 3 m/s 600 mmHg 33%
    14:00 +30°C° 0 mm 4 m/s 600 mmHg 33%
    15:00 +29°C° 0 mm 4 m/s 599 mmHg 35%
    16:00 +29°C° 0 mm 5 m/s 599 mmHg 37%
    17:00 +28°C° 0 mm 5 m/s 599 mmHg 40%
    18:00 +26°C° 0 mm 4 m/s 599 mmHg 47%
    19:00 +24°C° 0 mm 3 m/s 599 mmHg 55%
    20:00 +21°C° 0 mm 3 m/s 599 mmHg 62%
    21:00 +20°C° 0.1 mm 2 m/s 599 mmHg 65%
    22:00 +20°C° 0.1 mm 2 m/s 599 mmHg 68%
    23:00 +19°C° 0.1 mm 2 m/s 600 mmHg 72%

    22 Janeiro, Terça-feira

    Tempo Temperatura Precipitação Vento Pressão Humidade
    00:00 +19°C° 0 mm 2 m/s 599 mmHg 73%
    01:00 +19°C° 0 mm 1 m/s 599 mmHg 73%
    02:00 +19°C° 0 mm 1 m/s 598 mmHg 74%
    03:00 +19°C° 0 mm 1 m/s 598 mmHg 76%
    04:00 +19°C° 0 mm 1 m/s 598 mmHg 77%
    05:00 +18°C° 0 mm 1 m/s 598 mmHg 78%
    06:00 +20°C° 0 mm 1 m/s 599 mmHg 71%
    07:00 +22°C° 0 mm 1 m/s 600 mmHg 64%
    08:00 +24°C° 0 mm 1 m/s 601 mmHg 58%
    09:00 +25°C° 0 mm 2 m/s 601 mmHg 50%
    10:00 +27°C° 0 mm 2 m/s 601 mmHg 43%
    11:00 +29°C° 0 mm 3 m/s 601 mmHg 36%
    12:00 +29°C° 0 mm 3 m/s 601 mmHg 35%
    13:00 +30°C° 0 mm 3 m/s 600 mmHg 34%
    14:00 +32°C° 0 mm 4 m/s 600 mmHg 34%
    15:00 +30°C° 0 mm 4 m/s 599 mmHg 35%
    16:00 +30°C° 0 mm 4 m/s 599 mmHg 37%
    17:00 +30°C° 0 mm 4 m/s 598 mmHg 38%
    18:00 +28°C° 0 mm 3 m/s 598 mmHg 45%
    19:00 +25°C° 0 mm 2 m/s 597 mmHg 51%
    20:00 +23°C° 0 mm 2 m/s 597 mmHg 58%
    21:00 +22°C° 0 mm 1 m/s 597 mmHg 61%
    22:00 +22°C° 0 mm 1 m/s 598 mmHg 64%
    23:00 +21°C° 0 mm 1 m/s 598 mmHg 67%

    23 Janeiro, Quarta-feira

    Tempo Temperatura Precipitação Vento Pressão Humidade
    00:00 +21°C° 0 mm 1 m/s 597 mmHg 68%
    01:00 +20°C° 0 mm 1 m/s 597 mmHg 70%
    02:00 +20°C° 0 mm 1 m/s 597 mmHg 71%
    03:00 +20°C° 0 mm 1 m/s 597 mmHg 69%
    04:00 +20°C° 0 mm 1 m/s 597 mmHg 68%
    05:00 +19°C° 0 mm 1 m/s 597 mmHg 66%
    06:00 +21°C° 0 mm 1 m/s 598 mmHg 58%
    07:00 +23°C° 0 mm 1 m/s 599 mmHg 50%
    08:00 +25°C° 0 mm 1 m/s 601 mmHg 42%
    09:00 +27°C° 0 mm 2 m/s 601 mmHg 39%
    10:00 +28°C° 0 mm 2 m/s 601 mmHg 37%
    11:00 +29°C° 0 mm 3 m/s 602 mmHg 35%
    12:00 +30°C° 0 mm 4 m/s 601 mmHg 35%
    13:00 +30°C° 0 mm 4 m/s 600 mmHg 36%
    14:00 +32°C° 0 mm 5 m/s 600 mmHg 36%
    15:00 +30°C° 0 mm 5 m/s 599 mmHg 38%
    16:00 +29°C° 0 mm 5 m/s 599 mmHg 41%
    17:00 +29°C° 0 mm 5 m/s 598 mmHg 43%
    18:00 +27°C° 0.1 mm 4 m/s 598 mmHg 52%
    19:00 +25°C° 0.1 mm 4 m/s 598 mmHg 61%
    20:00 +22°C° 0.1 mm 3 m/s 598 mmHg 69%
    21:00 +21°C° 0.1 mm 3 m/s 598 mmHg 72%
    22:00 +20°C° 0.1 mm 2 m/s 599 mmHg 75%
    23:00 +20°C° 0.1 mm 2 m/s 599 mmHg 78%

    24 Janeiro, Quinta-feira

    Tempo Temperatura Precipitação Vento Pressão Humidade
    00:00 +20°C° 0.1 mm 1 m/s 598 mmHg 78%
    01:00 +20°C° 0.1 mm 1 m/s 598 mmHg 79%
    02:00 +20°C° 0.1 mm 1 m/s 598 mmHg 79%
    03:00 +20°C° 0 mm 1 m/s 598 mmHg 79%
    04:00 +20°C° 0 mm 1 m/s 598 mmHg 78%
    05:00 +20°C° 0 mm 1 m/s 597 mmHg 78%
    06:00 +21°C° 0 mm 1 m/s 598 mmHg 71%
    07:00 +23°C° 0 mm 1 m/s 599 mmHg 64%
    08:00 +24°C° 0 mm 1 m/s 600 mmHg 56%
    09:00 +26°C° 0 mm 1 m/s 601 mmHg 50%
    10:00 +28°C° 0 mm 2 m/s 601 mmHg 43%
    11:00 +29°C° 0 mm 2 m/s 601 mmHg 36%
    12:00 +30°C° 0 mm 3 m/s 601 mmHg 35%
    13:00 +32°C° 0 mm 4 m/s 600 mmHg 34%
    14:00 +32°C° 0 mm 5 m/s 600 mmHg 33%
    15:00 +32°C° 0.3 mm 5 m/s 599 mmHg 34%
    16:00 +32°C° 0.3 mm 5 m/s 599 mmHg 34%
    17:00 +30°C° 0.3 mm 5 m/s 598 mmHg 35%
    18:00 +28°C° 0.1 mm 3 m/s 598 mmHg 41%
    19:00 +26°C° 0.1 mm 2 m/s 597 mmHg 47%
    20:00 +23°C° 0.1 mm 1 m/s 597 mmHg 53%
    21:00 +23°C° 0 mm 1 m/s 597 mmHg 55%
    22:00 +22°C° 0 mm 1 m/s 597 mmHg 56%
    23:00 +22°C° 0 mm 1 m/s 598 mmHg 57%
    Mostrar mais